{"data":{"norad_id":48406,"epoch":"2026-09-20T04:27:49.229280Z","epoch_age_seconds":60776,"freshness":"FRESH","line1":"1 48406U 21038BF  26263.18598645  .00025978  00000+0  78623-3 0  9990","line2":"2 48406  53.1556 150.4037 0002611 116.2563 243.8708 15.34037656297205","mean_motion":15.34037656,"eccentricity":0.0002611,"inclination_deg":53.1556,"raan_deg":150.4037,"arg_perigee_deg":116.2563,"mean_anomaly_deg":243.8708,"bstar":0.00078623,"rev_number":29720,"period_min":93.8699251852,"perigee_km":461.99399027773,"apogee_km":465.56683955179,"semimajor_km":6841.9174149148,"source":"CELESTRAK","updated_at":"2026-09-20T09:00:38.948017Z"}}